FW8329 Weather Reports


time (UTC)temp
F
wind
direction
speed
knots
gust
knots
rain 1hr
in
rain 24hr
in
rain mn
in
humidity
%
barometer
mb
20260502224556 67 135 2.6 6.1 0.00 0.00 0.00 27 1006.1
20260502223053 66 82 0.0 3.5 0.00 0.00 0.00 33 1006.4
20260502221550 64 124 1.7 5.2 0.00 0.00 0.00 31 1006.6
20260502220049 63 88 1.7 6.1 0.00 0.00 0.00 34 1006.9
20260502214558 63 53 2.6 6.1 0.00 0.00 0.00 36 1007.1
20260502213047 62 127 1.7 6.1 0.00 0.00 0.00 36 1007.4
20260502211545 61 80 0.9 7.8 0.00 0.00 0.00 37 1007.6
20260502210046 62 68 3.5 8.7 0.00 0.00 0.00 37 1007.7
20260502204545 64 53 1.7 6.1 0.00 0.00 0.00 32 1007.6
20260502203042 65 130 1.7 7.0 0.00 0.00 0.00 31 1007.6
20260502201539 64 112 0.9 7.0 0.00 0.00 0.00 34 1007.8
20260502200037 64 93 0.0 7.8 0.00 0.00 0.00 33 1008.0
20260502194537 62 285 0.0 7.0 0.00 0.00 0.00 39 1008.2
20260502193035 62 42 2.6 7.8 0.00 0.00 0.00 34 1008.4
20260502191530 62 86 1.7 7.8 0.00 0.00 0.00 36 1008.6
20260502190026 62 62 0.9 6.1 0.00 0.00 0.00 35 1009.0
20260502184532 61 48 3.5 9.6 0.00 0.00 0.00 35 1009.1
20260502183021 61 63 2.6 9.6 0.00 0.00 0.00 36 1009.1
20260502181521 61 89 1.7 7.8 0.00 0.00 0.00 39 1009.2
20260502163100 56 42 3.5 7.0 0.00 0.00 0.00 40 1010.1
20260502161557 56 110 0.9 4.3 0.00 0.00 0.00 40 1010.2
20260502151540 50 138 0.0 0.9 0.00 0.00 0.00 50 1011.2
20260502123015 34 204 0.9 3.5 0.00 0.00 0.00 66 1011.7
20260502121516 34 215 0.9 4.3 0.00 0.00 0.00 66 1011.6
20260502114513 35 212 1.7 5.2 0.00 0.00 0.00 66 1011.7
20260502113008 35 219 1.7 7.8 0.00 0.00 0.00 64 1011.6
20260502111508 35 222 1.7 5.2 0.00 0.00 0.00 65 1011.5
20260502110007 35 233 1.7 5.2 0.00 0.00 0.00 65 1011.6
20260502104506 35 271 1.7 6.1 0.00 0.00 0.00 64 1011.6
20260502103010 35 211 0.0 3.5 0.00 0.00 0.00 65 1011.8
20260502101501 36 210 0.9 4.3 0.00 0.00 0.00 63 1011.6
20260502100119 36 162 1.7 4.3 0.00 0.00 0.00 63 1011.4
20260502071532 40 236 2.6 7.8 0.00 0.00 0.00 54 1011.3
20260502070036 40 199 2.6 8.7 0.00 0.00 0.00 54 1011.3
20260502064527 40 172 3.5 9.6 0.00 0.00 0.00 53 1011.2
20260502063027 40 236 4.3 9.6 0.00 0.00 0.00 54 1011.2
20260502061523 40 236 2.6 8.7 0.00 0.00 0.00 54 1011.2
20260502060019 40 221 2.6 5.2 0.00 0.00 0.00 54 1011.1
20260502054518 41 237 3.5 7.0 0.00 0.00 0.00 55 1011.1
20260502053017 42 270 2.6 9.6 0.00 0.00 0.00 54 1011.1
20260502051524 42 253 2.6 8.7 0.00 0.00 0.00 55 1011.1
20260502050021 42 217 3.5 7.0 0.00 0.00 0.00 54 1011.2
20260502044514 43 236 2.6 7.8 0.00 0.00 0.00 54 1011.1
20260502043015 43 219 0.9 4.3 0.00 0.00 0.00 55 1011.1
20260502041513 43 229 1.7 5.2 0.00 0.00 0.00 55 1011.2
20260502040012 44 219 0.9 3.5 0.00 0.00 0.00 55 1011.2
20260502034512 44 242 0.9 4.3 0.00 0.00 0.00 56 1011.0
20260502033011 45 230 0.9 3.5 0.00 0.00 0.00 56 1010.9
20260502031511 45 254 0.9 3.5 0.00 0.00 0.00 57 1010.7
20260502030010 45 228 0.0 1.7 0.00 0.00 0.00 59 1010.4
20260502024528 46 210 0.0 1.7 0.00 0.00 0.00 56 1010.0
20260502023009 46 224 0.0 0.9 0.00 0.00 0.00 59 1009.8
20260502021508 48 237 0.0 0.9 0.00 0.00 0.00 55 1009.7
20260502020007 49 236 0.0 0.9 0.00 0.00 0.00 51 1009.7
20260502014519 51 233 0.0 0.0 0.00 0.00 0.00 47 1009.6
20260502013006 53 233 0.0 0.9 0.00 0.00 0.00 42 1009.7
20260502011505 56 278 0.0 1.7 0.00 0.00 0.00 38 1009.7
20260502010005 60 307 0.0 5.2 0.00 0.00 0.00 32 1009.8
20260502004503 64 217 0.0 2.6 0.00 0.00 0.00 25 1009.8
20260502003001 67 314 0.0 1.7 0.00 0.00 0.00 24 1009.9
20260502001602 67 143 0.0 1.7 0.00 0.00 0.00 23 1010.0
20260502000059 66 322 0.9 6.1 0.00 0.00 0.00 21 1010.1
20260501234558 65 55 5.2 9.6 0.00 0.00 0.00 19 1010.1
20260501233052 66 184 0.9 5.2 0.00 0.00 0.00 20 1010.2
20260501231558 66 122 0.9 5.2 0.00 0.00 0.00 22 1010.4
20260501230048 67 210 0.9 6.1 0.00 0.00 0.00 19 1010.8